Flag for Israel Weather past 2 weeks in Holon, Israel

Now
82 °F

Passing clouds.


Feels Like: 87 °F
Forecast: 79 / 86 °F
Wind: 13 mph from Northwest

Location: Dov Airport

Current Time: Sep 17, 2014 at 11:04:27 PM

Latest Report: Sep 17, 2014 at 9:50 PM


Visibility: N/A

Pressure: 29.77 "Hg

Humidity: 70%

Dew point: 72 °F

Location of HolonLocation

Historic Weather in Holon — Graph

°F

Holon temperature yesterday

Maximum temperature yesterday: 86 °F (at 10:50 AM)
Minimum temperature yesterday: 75 °F (at 5:50 AM)
Average temperature yesterday: 82 °F

Past Weeks' High & Low Weather Summary

 TemperatureHumidityPressure
High91 °F (Sep 17, 3:50 PM)83% (Sep 5, 4:50 AM)29.92 "Hg (Sep 5, 4:50 AM)
Low75 °F (Sep 10, 6:50 AM)31% (Sep 17, 9:50 AM)29.68 "Hg (Sep 17, 3:50 PM)
Average83 °F63%29.82 "Hg
* Reported Sep 2 9:50 PM — Sep 17 9:50 PM, Holon, Weather by CustomWeather, © 2014

Note: Actual official high and low records may vary slightly from our data, if they occured in-between our weather recording intervals... More about our weather records

Advertising

Holon weather history for previous 24 hours

 ConditionsComfort  
Time TempWeatherWind HumidityBarometerVisibility
9:50 PM
Sep 17
82 °FPassing clouds.13 mph70%29.77 "HgN/A
8:50 PM84 °FPassing clouds.12 mph70%29.77 "HgN/A
7:50 PM84 °FClear.8 mph70%29.74 "Hg10 mi
6:50 PM84 °FSunny.17 mph70%29.71 "Hg10 mi
5:50 PM88 °FSunny.15 mph66%29.68 "Hg10 mi
4:50 PM90 °FSunny.13 mph59%29.68 "Hg10 mi
3:50 PM91 °FSunny.14 mph52%29.68 "Hg10 mi
2:50 PM90 °FSunny.15 mph55%29.71 "Hg10 mi
1:50 PM90 °FSunny.14 mph55%29.71 "Hg10 mi
12:50 PM90 °FSunny.12 mph49%29.74 "Hg10 mi
11:50 AM88 °FSunny.9 mph52%29.77 "Hg10 mi
10:50 AM86 °FSunny.8 mph49%29.77 "Hg10 mi
9:50 AM88 °FSunny.1 mph31%29.80 "Hg10 mi
8:50 AM82 °FSunny.2 mph45%29.80 "Hg10 mi
7:50 AM81 °FSunny.1 mph54%29.77 "Hg10 mi
6:50 AM77 °FClear.1 mph65%29.77 "Hg10 mi
5:50 AM75 °FClear.2 mph74%29.77 "Hg10 mi
5:00 AM77 °FClear.2 mph74%29.77 "Hg10 mi
Weather by CustomWeather, © 2014

See weather overviewHow to use our weather pages